| time (UTC) | temp C | wind direction | speed KPH | gust KPH | rain 1hr cm | rain 24hr cm | rain mn cm | humidity % | barometer mb |
| 20260507060903 | 10 | 282 | 11.3 | 12.9 | 0.00 | 0.00 | 0.00 | 84 | 1011.5 |
| 20260507060003 | 10 | 267 | 4.8 | 14.5 | 0.00 | 0.00 | 0.00 | 85 | 1011.5 |
| 20260507055403 | 10 | 281 | 4.8 | 14.5 | 0.00 | 0.00 | 0.00 | 86 | 1011.3 |
| 20260507054503 | 10 | 278 | 9.7 | 14.5 | 0.00 | 0.00 | 0.00 | 86 | 1011.4 |
| 20260507053603 | 10 | 263 | 3.2 | 14.5 | 0.00 | 0.00 | 0.00 | 85 | 1011.3 |
| 20260507052703 | 9 | 270 | 4.8 | 17.7 | 0.00 | 0.00 | 0.00 | 87 | 1010.9 |
| 20260507051803 | 10 | 261 | 6.4 | 14.5 | 0.00 | 0.00 | 0.00 | 87 | 1011.1 |
| 20260507050903 | 10 | 250 | 3.2 | 6.4 | 0.00 | 0.00 | 0.00 | 86 | 1010.9 |
| 20260507050003 | 9 | 261 | 1.6 | 6.4 | 0.00 | 0.00 | 0.00 | 89 | 1010.8 |
| 20260507045403 | 8 | 256 | 3.2 | 11.3 | 0.00 | 0.00 | 0.00 | 90 | 1010.8 |
| 20260507044503 | 8 | 275 | 3.2 | 12.9 | 0.00 | 0.00 | 0.00 | 92 | 1010.9 |
| 20260507043603 | 8 | 275 | 3.2 | 12.9 | 0.00 | 0.00 | 0.00 | 93 | 1010.6 |
| 20260507042703 | 8 | 283 | 0.0 | 6.4 | 0.00 | 0.00 | 0.00 | 93 | 1010.9 |
| 20260507041803 | 8 | 288 | 1.6 | 6.4 | 0.00 | 0.00 | 0.00 | 94 | 1010.7 |
| 20260507040903 | 8 | 288 | 3.2 | 6.4 | 0.00 | 0.00 | 0.00 | 94 | 1010.4 |
| 20260507040003 | 8 | 290 | 3.2 | 6.4 | 0.00 | 0.00 | 0.00 | 94 | 1010.4 |
| 20260507035403 | 8 | 285 | 3.2 | 6.4 | 0.00 | 0.00 | 0.00 | 94 | 1010.2 |
| 20260507034503 | 8 | 290 | 1.6 | 9.7 | 0.00 | 0.00 | 0.00 | 93 | 1010.3 |
| 20260507033603 | 8 | 295 | 3.2 | 9.7 | 0.00 | 0.00 | 0.00 | 93 | 1010.1 |
| 20260507032703 | 8 | 307 | 0.0 | 6.4 | 0.00 | 0.00 | 0.00 | 92 | 1010.3 |
| 20260507031803 | 8 | 282 | 3.2 | 6.4 | 0.00 | 0.00 | 0.00 | 92 | 1010.3 |
| 20260507030903 | 8 | 285 | 3.2 | 9.7 | 0.00 | 0.00 | 0.00 | 91 | 1010.3 |
| 20260507030003 | 8 | 258 | 3.2 | 11.3 | 0.00 | 0.00 | 0.00 | 91 | 1010.1 |
| 20260507025403 | 9 | 281 | 3.2 | 12.9 | 0.00 | 0.00 | 0.00 | 90 | 1009.8 |
| 20260507024503 | 9 | 289 | 8.0 | 20.9 | 0.00 | 0.00 | 0.00 | 89 | 1009.8 |
| 20260507023603 | 9 | 279 | 11.3 | 17.7 | 0.00 | 0.00 | 0.00 | 89 | 1010.1 |
| 20260507022703 | 9 | 271 | 6.4 | 17.7 | 0.00 | 0.00 | 0.00 | 89 | 1009.9 |
| 20260507021803 | 9 | 275 | 11.3 | 20.9 | 0.00 | 0.00 | 0.00 | 89 | 1010.0 |
| 20260507020903 | 9 | 274 | 11.3 | 24.1 | 0.00 | 0.00 | 0.00 | 88 | 1009.8 |
| 20260507020003 | 9 | 267 | 9.7 | 17.7 | 0.00 | 0.00 | 0.00 | 88 | 1009.8 |
| 20260507015403 | 10 | 279 | 8.0 | 20.9 | 0.00 | 0.00 | 0.00 | 88 | 1009.8 |
| 20260507014503 | 10 | 270 | 3.2 | 12.9 | 0.00 | 0.00 | 0.00 | 88 | 1009.6 |
| 20260507013603 | 10 | 258 | 4.8 | 12.9 | 0.00 | 0.00 | 0.00 | 89 | 1009.6 |
| 20260507012703 | 10 | 269 | 6.4 | 17.7 | 0.00 | 0.00 | 0.00 | 89 | 1009.5 |
| 20260507011803 | 10 | 276 | 3.2 | 12.9 | 0.00 | 0.00 | 0.00 | 89 | 1009.3 |
| 20260507010903 | 10 | 274 | 6.4 | 17.7 | 0.00 | 0.00 | 0.00 | 89 | 1009.3 |
| 20260507010003 | 10 | 269 | 4.8 | 14.5 | 0.00 | 0.00 | 0.00 | 89 | 1009.3 |
| 20260507005403 | 10 | 278 | 1.6 | 17.7 | 0.00 | 0.00 | 0.00 | 89 | 1009.2 |
| 20260507004503 | 10 | 288 | 6.4 | 17.7 | 0.00 | 0.00 | 0.00 | 89 | 1009.3 |
| 20260507003603 | 10 | 259 | 3.2 | 12.9 | 0.00 | 0.00 | 0.00 | 89 | 1009.5 |
| 20260507002704 | 10 | 277 | 4.8 | 17.7 | 0.00 | 0.00 | 0.00 | 88 | 1009.2 |
| 20260507001803 | 10 | 267 | 6.4 | 20.9 | 0.00 | 0.00 | 0.00 | 88 | 1009.1 |
| 20260507000903 | 10 | 310 | 6.4 | 14.5 | 0.00 | 0.00 | 0.00 | 88 | 1009.4 |
| 20260507000003 | 10 | 282 | 9.7 | 17.7 | 0.00 | 0.00 | 0.00 | 87 | 1009.1 |
| 20260506235403 | 11 | 273 | 6.4 | 17.7 | 0.00 | 0.00 | 0.00 | 87 | 1009.1 |
| 20260506234503 | 11 | 290 | 4.8 | 29.0 | 0.00 | 0.00 | 0.00 | 87 | 1009.3 |
| 20260506233603 | 11 | 293 | 16.1 | 29.0 | 0.00 | 0.00 | 0.00 | 87 | 1009.3 |
| 20260506232703 | 11 | 264 | 19.3 | 25.7 | 0.00 | 0.00 | 0.00 | 87 | 1009.5 |
| 20260506231803 | 11 | 272 | 12.9 | 25.7 | 0.00 | 0.00 | 0.00 | 87 | 1009.4 |
| 20260506230903 | 11 | 268 | 16.1 | 25.7 | 0.00 | 0.00 | 0.00 | 87 | 1009.1 |
| 20260506230004 | 11 | 267 | 6.4 | 17.7 | 0.00 | 0.00 | 0.00 | 88 | 1008.9 |
| 20260506225403 | 11 | 273 | 6.4 | 17.7 | 0.00 | 0.00 | 0.00 | 89 | 1009.1 |
| 20260506224503 | 11 | 273 | 6.4 | 17.7 | 0.00 | 0.00 | 0.00 | 89 | 1009.1 |
| 20260506223603 | 11 | 261 | 6.4 | 17.7 | 0.00 | 0.00 | 0.00 | 89 | 1008.9 |
| 20260506222703 | 11 | 250 | 4.8 | 12.9 | 0.00 | 0.00 | 0.00 | 89 | 1008.8 |
| 20260506221803 | 11 | 270 | 6.4 | 17.7 | 0.00 | 0.00 | 0.00 | 90 | 1009.1 |
| 20260506220903 | 11 | 261 | 8.0 | 17.7 | 0.00 | 0.00 | 0.00 | 90 | 1008.9 |
| 20260506220003 | 11 | 269 | 3.2 | 20.9 | 0.00 | 0.00 | 0.00 | 90 | 1008.8 |
| 20260506215403 | 11 | 275 | 8.0 | 20.9 | 0.00 | 0.00 | 0.00 | 90 | 1008.7 |
| 20260506214503 | 11 | 260 | 9.7 | 22.5 | 0.00 | 0.00 | 0.00 | 90 | 1008.8 |
| 20260506213603 | 11 | 264 | 9.7 | 22.5 | 0.00 | 0.00 | 0.00 | 90 | 1008.8 |
| 20260506212703 | 11 | 280 | 6.4 | 14.5 | 0.00 | 0.00 | 0.00 | 89 | 1008.8 |
| 20260506211803 | 11 | 264 | 8.0 | 14.5 | 0.00 | 0.00 | 0.00 | 87 | 1008.4 |
| 20260506210903 | 11 | 286 | 4.8 | 12.9 | 0.00 | 0.00 | 0.00 | 86 | 1008.2 |
| 20260506210003 | 11 | 282 | 6.4 | 20.9 | 0.00 | 0.00 | 0.00 | 85 | 1008.4 |
| 20260506205403 | 11 | 273 | 6.4 | 20.9 | 0.00 | 0.00 | 0.00 | 84 | 1008.1 |
| 20260506204503 | 11 | 275 | 9.7 | 17.7 | 0.00 | 0.00 | 0.00 | 83 | 1007.9 |
| 20260506203603 | 11 | 283 | 9.7 | 17.7 | 0.00 | 0.00 | 0.00 | 83 | 1008.1 |
| 20260506202703 | 11 | 276 | 12.9 | 17.7 | 0.00 | 0.00 | 0.00 | 82 | 1008.0 |
| 20260506201803 | 12 | 293 | 8.0 | 25.7 | 0.00 | 0.00 | 0.00 | 83 | 1008.0 |
| 20260506200903 | 12 | 286 | 6.4 | 20.9 | 0.00 | 0.00 | 0.00 | 83 | 1008.0 |
| 20260506200003 | 12 | 274 | 8.0 | 22.5 | 0.00 | 0.00 | 0.00 | 83 | 1007.9 |
| 20260506195403 | 12 | 277 | 9.7 | 14.5 | 0.00 | 0.00 | 0.00 | 84 | 1007.7 |
| 20260506194503 | 12 | 290 | 11.3 | 17.7 | 0.00 | 0.00 | 0.00 | 83 | 1007.6 |
| 20260506193603 | 13 | 284 | 11.3 | 24.1 | 0.00 | 0.00 | 0.00 | 81 | 1007.3 |
| 20260506192703 | 13 | 275 | 6.4 | 11.3 | 0.00 | 0.00 | 0.00 | 76 | 1007.0 |
| 20260506191803 | 13 | 272 | 6.4 | 11.3 | 0.00 | 0.00 | 0.00 | 74 | 1006.9 |
| 20260506190903 | 13 | 285 | 6.4 | 20.9 | 0.00 | 0.00 | 0.00 | 72 | 1006.7 |
| 20260506190004 | 14 | 290 | 11.3 | 25.7 | 0.00 | 0.00 | 0.00 | 71 | 1006.9 |
| 20260506185403 | 14 | 286 | 14.5 | 27.4 | 0.00 | 0.00 | 0.00 | 70 | 1006.6 |
| 20260506184503 | 14 | 269 | 9.7 | 40.2 | 0.00 | 0.00 | 0.00 | 75 | 1006.6 |
| 20260506183603 | 14 | 270 | 4.8 | 17.7 | 0.00 | 0.00 | 0.00 | 79 | 1006.0 |
| 20260506182703 | 14 | 263 | 6.4 | 11.3 | 0.00 | 0.00 | 0.00 | 80 | 1006.2 |
| 20260506181803 | 13 | 328 | 3.2 | 6.4 | 0.00 | 0.00 | 0.00 | 82 | 1006.0 |
| 20260506180903 | 14 | 342 | 1.6 | 3.2 | 0.00 | 0.00 | 0.00 | 83 | 1005.8 |
| 20260506180004 | 14 | 2 | 1.6 | 6.4 | 0.00 | 0.00 | 0.00 | 84 | 1005.2 |
| 20260506175403 | 14 | 110 | 0.0 | 12.9 | 0.00 | 0.00 | 0.00 | 82 | 1005.1 |
| 20260506174503 | 15 | 88 | 3.2 | 12.9 | 0.00 | 0.00 | 0.00 | 81 | 1004.9 |
| 20260506173603 | 15 | 72 | 3.2 | 11.3 | 0.00 | 0.00 | 0.00 | 80 | 1004.9 |
| 20260506172703 | 15 | 77 | 6.4 | 12.9 | 0.00 | 0.00 | 0.00 | 80 | 1004.3 |
| 20260506171803 | 15 | 49 | 3.2 | 6.4 | 0.00 | 0.00 | 0.00 | 77 | 1004.4 |
| 20260506170903 | 15 | 67 | 1.6 | 9.7 | 0.00 | 0.00 | 0.00 | 76 | 1004.8 |
| 20260506170003 | 15 | 330 | 1.6 | 9.7 | 0.00 | 0.00 | 0.00 | 76 | 1004.6 |
| 20260506165403 | 16 | 70 | 4.8 | 17.7 | 0.00 | 0.00 | 0.00 | 72 | 1004.4 |
| 20260506164503 | 17 | 335 | 3.2 | 9.7 | 0.00 | 0.00 | 0.00 | 61 | 1004.4 |
| 20260506163603 | 17 | 272 | 3.2 | 11.3 | 0.00 | 0.03 | 0.00 | 59 | 1004.7 |
| 20260506162703 | 18 | 278 | 4.8 | 11.3 | 0.00 | 0.10 | 0.00 | 54 | 1005.0 |
| 20260506161803 | 18 | 271 | 0.0 | 3.2 | 0.00 | 0.13 | 0.00 | 53 | 1004.5 |
| 20260506160903 | 18 | 273 | 1.6 | 6.4 | 0.00 | 0.15 | 0.00 | 55 | 1004.8 |
| 20260506160003 | 18 | 272 | 1.6 | 3.2 | 0.00 | 0.15 | 0.00 | 57 | 1004.5 |
| 20260506155403 | 18 | 273 | 1.6 | 3.2 | 0.00 | 0.15 | 0.00 | 50 | 1004.3 |
| 20260506154503 | 19 | 277 | 3.2 | 3.2 | 0.00 | 0.15 | 0.00 | 50 | 1004.4 |
| 20260506153603 | 19 | 256 | 3.2 | 6.4 | 0.00 | 0.15 | 0.00 | 51 | 1004.4 |
| 20260506152703 | 19 | 160 | 3.2 | 3.2 | 0.00 | 0.15 | 0.00 | 48 | 1004.4 |
| 20260506151803 | 19 | 112 | 3.2 | 3.2 | 0.00 | 0.15 | 0.00 | 46 | 1004.3 |
| 20260506150903 | 19 | 130 | 0.0 | 6.4 | 0.00 | 0.15 | 0.00 | 47 | 1004.2 |
| 20260506150003 | 20 | 143 | 1.6 | 3.2 | 0.00 | 0.15 | 0.00 | 45 | 1004.4 |
| 20260506145403 | 20 | 113 | 1.6 | 3.2 | 0.00 | 0.15 | 0.00 | 46 | 1004.5 |
| 20260506144503 | 19 | 134 | 1.6 | 3.2 | 0.00 | 0.15 | 0.00 | 47 | 1004.5 |
| 20260506143603 | 20 | 180 | 0.0 | 3.2 | 0.00 | 0.15 | 0.00 | 47 | 1004.6 |
| 20260506142703 | 20 | 153 | 0.0 | 3.2 | 0.00 | 0.15 | 0.00 | 45 | 1004.7 |
| 20260506141803 | 20 | 142 | 1.6 | 3.2 | 0.00 | 0.15 | 0.00 | 44 | 1004.6 |
| 20260506140903 | 20 | 109 | 0.0 | 3.2 | 0.00 | 0.15 | 0.00 | 44 | 1004.9 |
| 20260506140003 | 20 | 90 | 0.0 | 3.2 | 0.00 | 0.15 | 0.00 | 45 | 1004.8 |
| 20260506135403 | 20 | 90 | 3.2 | 3.2 | 0.00 | 0.15 | 0.00 | 46 | 1004.8 |
| 20260506134503 | 19 | 90 | 0.0 | 6.4 | 0.00 | 0.15 | 0.00 | 48 | 1004.9 |
| 20260506133603 | 20 | 90 | 3.2 | 3.2 | 0.00 | 0.15 | 0.00 | 48 | 1004.9 |
| 20260506132703 | 20 | 106 | 1.6 | 6.4 | 0.00 | 0.15 | 0.00 | 45 | 1005.0 |
| 20260506131803 | 19 | 116 | 3.2 | 6.4 | 0.00 | 0.15 | 0.00 | 47 | 1005.1 |
| 20260506130903 | 21 | 126 | 0.0 | 3.2 | 0.00 | 0.15 | 0.00 | 46 | 1004.9 |
| 20260506130004 | 20 | 167 | 0.0 | 3.2 | 0.00 | 0.15 | 0.00 | 48 | 1005.3 |
| 20260506125403 | 20 | 55 | 0.0 | 6.4 | 0.00 | 0.15 | 0.00 | 48 | 1005.3 |
| 20260506124503 | 18 | 47 | 6.4 | 6.4 | 0.00 | 0.15 | 0.00 | 54 | 1005.2 |
| 20260506123603 | 19 | 54 | 1.6 | 6.4 | 0.00 | 0.15 | 0.00 | 54 | 1005.2 |
| 20260506122703 | 19 | 72 | 1.6 | 6.4 | 0.00 | 0.15 | 0.00 | 55 | 1005.3 |
| 20260506121803 | 20 | 91 | 1.6 | 6.4 | 0.00 | 0.15 | 0.00 | 53 | 1005.6 |
| 20260506120903 | 18 | 62 | 3.2 | 11.3 | 0.00 | 0.15 | 0.00 | 55 | 1005.7 |
| 20260506120003 | 18 | 62 | 6.4 | 11.3 | 0.00 | 0.15 | 0.00 | 58 | 1006.1 |
| 20260506115403 | 18 | 38 | 3.2 | 9.7 | 0.00 | 0.15 | 0.00 | 56 | 1006.0 |
| 20260506114503 | 20 | 65 | 3.2 | 6.4 | 0.00 | 0.15 | 0.00 | 52 | 1006.1 |
| 20260506113603 | 20 | 334 | 1.6 | 6.4 | 0.00 | 0.15 | 0.00 | 50 | 1006.4 |
| 20260506112703 | 18 | 21 | 3.2 | 6.4 | 0.00 | 0.15 | 0.00 | 52 | 1006.2 |
| 20260506111803 | 18 | 56 | 1.6 | 6.4 | 0.00 | 0.15 | 0.00 | 58 | 1006.2 |
| 20260506110903 | 18 | 76 | 3.2 | 6.4 | 0.00 | 0.15 | 0.00 | 60 | 1006.2 |
| 20260506110003 | 18 | 309 | 3.2 | 3.2 | 0.00 | 0.15 | 0.00 | 59 | 1006.6 |
| 20260506105403 | 18 | 328 | 1.6 | 6.4 | 0.00 | 0.15 | 0.00 | 58 | 1006.7 |
| 20260506104503 | 17 | 337 | 1.6 | 6.4 | 0.00 | 0.15 | 0.00 | 61 | 1006.6 |
| 20260506103603 | 18 | 279 | 3.2 | 9.7 | 0.00 | 0.15 | 0.00 | 63 | 1006.7 |
| 20260506102703 | 17 | 96 | 1.6 | 6.4 | 0.00 | 0.15 | 0.00 | 63 | 1006.9 |
| 20260506101803 | 17 | 51 | 3.2 | 9.7 | 0.00 | 0.15 | 0.00 | 65 | 1006.8 |
| 20260506100903 | 17 | 73 | 1.6 | 11.3 | 0.00 | 0.15 | 0.00 | 67 | 1006.9 |
| 20260506100003 | 18 | 65 | 1.6 | 6.4 | 0.00 | 0.15 | 0.00 | 64 | 1006.9 |
| 20260506095403 | 16 | 71 | 1.6 | 9.7 | 0.00 | 0.15 | 0.00 | 68 | 1007.1 |
| 20260506094503 | 16 | 73 | 4.8 | 9.7 | 0.00 | 0.15 | 0.00 | 69 | 1006.8 |
| 20260506093603 | 16 | 85 | 4.8 | 11.3 | 0.00 | 0.15 | 0.00 | 71 | 1007.0 |
| 20260506092703 | 16 | 58 | 6.4 | 11.3 | 0.00 | 0.15 | 0.00 | 70 | 1007.1 |
| 20260506091803 | 15 | 62 | 6.4 | 11.3 | 0.00 | 0.15 | 0.00 | 75 | 1006.9 |
| 20260506090903 | 15 | 72 | 3.2 | 9.7 | 0.00 | 0.15 | 0.00 | 76 | 1007.1 |
| 20260506090003 | 15 | 66 | 3.2 | 9.7 | 0.00 | 0.15 | 0.00 | 76 | 1007.0 |
| 20260506085403 | 15 | 36 | 3.2 | 6.4 | 0.00 | 0.15 | 0.00 | 77 | 1006.9 |
| 20260506084503 | 16 | 42 | 3.2 | 6.4 | 0.00 | 0.15 | 0.00 | 76 | 1007.0 |
| 20260506083603 | 16 | 19 | 3.2 | 6.4 | 0.00 | 0.15 | 0.00 | 74 | 1007.0 |
| 20260506082703 | 16 | 46 | 1.6 | 6.4 | 0.00 | 0.15 | 0.00 | 74 | 1007.0 |
| 20260506081803 | 15 | 69 | 1.6 | 11.3 | 0.00 | 0.15 | 0.00 | 77 | 1007.2 |
| 20260506080903 | 15 | 85 | 4.8 | 11.3 | 0.00 | 0.15 | 0.00 | 79 | 1007.4 |
| 20260506072703 | 13 | 99 | 3.2 | 11.3 | 0.00 | 0.15 | 0.00 | 82 | 1007.2 |
| 20260506071803 | 13 | 81 | 8.0 | 12.9 | 0.00 | 0.15 | 0.00 | 84 | 1007.1 |
| 20260506070903 | 13 | 67 | 4.8 | 11.3 | 0.00 | 0.15 | 0.00 | 86 | 1007.2 |
| 20260506061803 | 12 | 112 | 3.2 | 6.4 | 0.00 | 0.15 | 0.00 | 85 | 1007.0 |